Location: Buch
(50.1863°N, 11.0141°E)
Time: 21:46:40
(UTC+00:00)

Cosmos 1606 Rocket - Pass Details

Date: 18 January 2020
Orbit: 602 x 633 km, 82.5° (Epoch: 27 February)

Event Time Altitude Azimuth Distance (km) Brightness Sun altitude
Rises 06:20:09 0° 219° (SW) 2,915 6.8 -7.5°
Reaches altitude 10° 06:22:40 10° 231° (SW) 2,009 5.9 -7.1°
Maximum altitude 06:26:29 27° 291° (WNW) 1,202 4.5 -6.6°
Drops below altitude 10° 06:30:19 10° 350° (N) 2,009 5.8 -6.0°
Sets 06:32:50 0° 2° (N) 2,915 6.8 -5.7°
